Location: Tamazert
(32.6352°N, 5.2072°W)
Time: 03:11:49
(UTC+00:00)

Vanguard 2 Rocket - Pass Details

Date: 07 October 2022
Orbit: 555 x 3321 km, 32.9° (Epoch: 05 December)

Event Time Altitude Azimuth Distance (km) Brightness Sun altitude
Rises 00:03:07 0° 268° (W) 6,776 11.4 -62.7°
Enters shadow 00:07:39 - 269° (W) 5,569 10.8 -62.8°
Reaches altitude 10° 00:08:12 10° 269° (W) 5,417 - -62.8°
Maximum altitude 00:23:01 88° 360° (N) 1,735 - -62.6°
Drops below altitude 10° 00:31:02 10° 90° (E) 3,106 - -62.3°
Sets 00:33:11 0° 91° (E) 3,816 - -62.2°
